Weather History for Kodiak, AK

Change the Weather History Date:

Tuesday, January 22, 2013

  Actual Average Record
Temperature  
Mean Temperature 40 °F 30 °F  
Max Temperature 41 °F 35 °F 44 °F (1991)
Min Temperature 38 °F 26 °F 0 °F (1973)
Degree Days  
Heating Degree Days 25 35  
Month to date heating degree days 673 758  
Since 1 July heating degree days 4712 4599  
Cooling Degree Days 0    
Month to date cooling degree days 0  
Year to date cooling degree days 0  
Moisture  
Dew Point 38 °F    
Average Humidity 0    
Maximum Humidity 0    
Minimum Humidity 0    
Precipitation  
Precipitation 1.70 in 0.27 in 2.50 in (1975)
Month to date precipitation 7.29 6.07  
Year to date precipitation 7.29 6.07  
Snow  
Snow 0.00 in 0.40 in 6.50 in (2002)
Month to date snowfall 3.6 8.8  
Since 1 July snowfall 20.0 30.1  
Snow Depth 0.00 in    
Sea Level Pressure  
Sea Level Pressure 29.32 in    
Wind  
Wind Speed 18 mph (NE)    
Max Wind Speed 30 mph    
Max Gust Speed 30 mph    
Visibility 5 miles    
Events Rain    
T = Trace of Precipitation, MM = Missing Value Source: NWS Daily Summary

Daily Weather History Graph

Daily Weather History Graph

Search for Another Location

Airport:

Trip Planner

Search our weather history database for the weather conditions in past years. The results will help you decide how hot, cold, wet, or windy it might be!

Date:

Astronomy

Jan. 22, 2013 Rise Set
Actual Time 9:30 AM AKST 5:13 PM AKST
Civil Twilight 8:44 AM AKST 5:59 PM AKST
Nautical Twilight 7:55 AM AKST 6:48 PM AKST
Astronomical Twilight 7:09 AM AKST 7:34 PM AKST
Moon 1:33 PM AKST (1/22) 6:11 AM AKST (1/22)
Length of Visible Light 9h 14m
Length of Day
7h 43m
Waxing Gibbous, 84% of the Moon is Illuminated
Jan 22
Waxing Gibbous
Jan 26
Full
Feb 3
Last Quarter
Feb 9
New
Feb 17
First Quarter

Hourly Weather History & Observations

Time (AKST) Temp. Windchill Dew Point Humidity Pressure Visibility Wind Dir Wind Speed Gust Speed Precip Events Conditions
12:08 AM 39.2 °F 29.6 °F 39.2 °F 100% 29.39 in 4.0 mi NE 19.6 mph - 0.03 in Rain Rain
12:35 AM 39.2 °F 30.2 °F 39.2 °F 100% 29.40 in 4.0 mi NE 17.3 mph - 0.10 in Rain Rain
12:44 AM 39.2 °F 29.3 °F 37.4 °F 93% 29.40 in 4.0 mi NE 20.7 mph - 0.12 in Rain Heavy Rain
12:53 AM 39.0 °F 30.6 °F 37.9 °F 96% 29.40 in 5.0 mi ENE 15.0 mph - 0.16 in Rain Rain
1:53 AM 39.0 °F 29.6 °F 37.0 °F 93% 29.39 in 5.0 mi NE 18.4 mph 24.2 mph 0.13 in Rain Rain
2:53 AM 39.9 °F 31.4 °F 37.9 °F 93% 29.37 in 6.0 mi NE 16.1 mph - 0.10 in Rain Rain
3:50 AM 39.2 °F 30.2 °F 37.4 °F 93% 29.36 in 6.0 mi NE 17.3 mph - 0.10 in Rain Rain
3:53 AM 39.9 °F 31.1 °F 37.9 °F 93% 29.36 in 6.0 mi NE 17.3 mph - 0.11 in Rain Rain
4:07 AM 39.2 °F 29.8 °F 37.4 °F 93% 29.36 in 5.0 mi NE 18.4 mph - 0.02 in Rain Rain
4:36 AM 39.2 °F 31.6 °F 39.2 °F 100% 29.35 in 5.0 mi ENE 12.7 mph 24.2 mph 0.08 in Rain Rain
4:53 AM 39.9 °F 30.2 °F 39.0 °F 97% 29.35 in 5.0 mi NE 20.7 mph - 0.11 in Rain Rain
5:34 AM 39.2 °F 29.3 °F 37.4 °F 93% 29.35 in 6.0 mi NE 20.7 mph 31.1 mph 0.07 in Rain Rain
5:53 AM 39.9 °F 31.8 °F 37.9 °F 93% 29.35 in 6.0 mi NE 15.0 mph 24.2 mph 0.10 in Rain Rain
6:53 AM 39.0 °F 29.0 °F 37.9 °F 96% 29.34 in 5.0 mi NE 20.7 mph 28.8 mph 0.06 in Rain Light Rain
7:41 AM 39.2 °F 29.0 °F 37.4 °F 93% 29.33 in 6.0 mi NE 21.9 mph 26.5 mph 0.05 in Rain Light Rain
7:53 AM 39.0 °F 29.0 °F 37.9 °F 96% 29.33 in 5.0 mi NE 20.7 mph 27.6 mph 0.06 in Rain Rain
8:53 AM 39.0 °F 29.3 °F 37.0 °F 93% 29.34 in 7.0 mi ENE 19.6 mph 29.9 mph 0.06 in Rain Light Rain
9:34 AM 39.2 °F 29.6 °F 37.4 °F 93% 29.34 in 8.0 mi NE 19.6 mph 27.6 mph 0.03 in Rain Light Rain
9:53 AM 39.0 °F 29.0 °F 37.0 °F 93% 29.35 in 7.0 mi ENE 20.7 mph 29.9 mph 0.05 in Rain Rain
10:53 AM 39.0 °F 29.6 °F 37.0 °F 93% 29.34 in 7.0 mi NE 18.4 mph - 0.05 in Rain Light Rain
11:53 AM 39.0 °F 29.6 °F 37.9 °F 96% 29.33 in 4.0 mi NE 18.4 mph - 0.04 in Rain Rain
12:08 PM 39.2 °F 29.6 °F 37.4 °F 93% 29.32 in 2.5 mi NE 19.6 mph - 0.00 in Rain Light Rain
12:53 PM 39.9 °F 30.2 °F 39.0 °F 97% 29.31 in 2.5 mi NE 20.7 mph - 0.05 in Rain Light Rain
1:53 PM 39.9 °F 30.8 °F 39.0 °F 97% 29.29 in 2.5 mi NE 18.4 mph - 0.02 in Rain Light Rain
2:53 PM 39.9 °F 30.8 °F 39.9 °F 100% 29.29 in 2.5 mi NE 18.4 mph - 0.04 in Rain Rain
3:53 PM 39.9 °F 30.5 °F 39.9 °F 100% 29.28 in 2.5 mi NNE 19.6 mph - 0.09 in Rain Rain
4:53 PM 41.0 °F 31.6 °F 39.0 °F 93% 29.27 in 2.5 mi NNE 20.7 mph 28.8 mph 0.09 in Rain Light Rain
5:49 PM 39.2 °F 29.3 °F 39.2 °F 100% 29.26 in 5.0 mi NNE 20.7 mph - 0.06 in Rain Light Rain
5:53 PM 39.9 °F 30.8 °F 39.0 °F 97% 29.27 in 5.0 mi NNE 18.4 mph - 0.07 in Rain Light Rain
6:53 PM 39.9 °F 30.8 °F 37.9 °F 93% 29.26 in 8.0 mi NNE 18.4 mph 28.8 mph 0.05 in Rain Rain
7:53 PM 39.0 °F 32.8 °F 37.9 °F 96% 29.25 in 6.0 mi North 9.2 mph 20.7 mph 0.05 in Rain Rain
8:53 PM 39.9 °F 31.1 °F 37.9 °F 93% 29.24 in 4.0 mi NNE 17.3 mph 25.3 mph 0.03 in Rain Light Rain
9:53 PM 39.0 °F 29.0 °F 36.0 °F 89% 29.24 in 6.0 mi NNE 20.7 mph 29.9 mph 0.06 in Rain Light Rain
10:53 PM 39.0 °F 30.6 °F 37.0 °F 93% 29.24 in 8.0 mi NE 15.0 mph - 0.07 in Rain Light Rain
11:40 PM 39.2 °F 29.8 °F 39.2 °F 100% 29.22 in 6.0 mi NNE 18.4 mph 31.1 mph 0.05 in Rain Light Rain
11:53 PM 39.9 °F 31.1 °F 39.0 °F 97% 29.23 in 10.0 mi NE 17.3 mph - 0.05 in Rain Light Rain